Location: Alta
(39.2070°N, 120.8111°W)
Time: 02:29:11
(UTC+00:00)

ITAMSAT 1 - Pass Details

Date: 04 April 2023
Orbit: 782 x 797 km, 98.8° (Epoch: 29 May)

Event Time Altitude Azimuth Distance (km) Brightness Sun altitude
Rises 05:17:49 0° 220° (SW) 3,277 10.9 -30.7°
Reaches altitude 10° 05:22:17 10° 256° (WSW) 2,359 10.5 -31.3°
Maximum altitude 05:23:32 11° 271° (W) 2,306 10.6 -31.5°
Drops below altitude 10° 05:24:48 10° 285° (WNW) 2,365 10.8 -31.7°
Sets 05:29:20 0° 321° (NW) 3,305 12.0 -32.4°
